Find Kosmos-1703

NORAD ID: 16262 Int'l Des: 1985-108 Owner: GRU Country: SU operational
LEOCIRCULARPOLAR

Live Position

Loading 3D Globe...

About Kosmos-1703

Description loading...

Upcoming Passes

Passes for default location (London). Set your location on the main map for personalized predictions.

Altitude History

Loading altitude history...

Two-Line Element Set

1 16262U 85108A 26105.76796275 .00013241 00000-0 21648-3 0 9997
2 16262 82.4549 282.7349 0004595 211.0519 149.0462 15.52371386207778
Epoch: Apr 15, 2026 • Age: 13 hours

Current Status

Altitude 417.7 km
Velocity 7.66 km/s
Sub-Earth Point 35.42°N, 21.28°W
Launch Date Nov 22, 1985
Age 40.3 years
Type other

Technical Details

Classification Payload
Mass 1750.00 kg
Dry Mass 1750.00 kg
Total Mass 1750.00 kg
Length 3.20 m
Diameter 1.30 m
Span 13.10 m
Shape Cyl + Ant
Manufacturer YUZH
Bus Type Tselina-D
Phase Status In Orbit
Owner/State GRU/SU

Most Searched